Погода в Самаринде

Индонезия     0°30′31″N   117°09′25″E
темп.,
°C
ветер,
м/с
пор.,
м/с
влажн.,
%
обл.,
%
осадки,
мм/ч
давл.,
гПа
погр.,
м
4 августа, ср
ср423:00+23ю1692100 0.0 1013150
02:00+23ююз1294100 0.0 101157
05:00+24юз1594100 0.0 1011151
08:00+26юз2585100 0.0 1013293
11:00+31ююз2362100 0.1 10121353
14:00+29ююз247843 1.0 1009511
17:00+28ю1389100 4.3 1009199
20:00+24ююз27975 4.4 1011230
5 августа, чт
чт523:00+23юз1898100 0.0 1012239
02:00+23ююз1898100 0.0 1011249
05:00+23зюз1599100 0.9 1011166
08:00+24юз1696100 1.1 1013248
11:00+27юз1383100 1.6 1012510
14:00+33юз235177 2.5 10081636
17:00+31ююз246436 0.0 1008671
20:00+25ююз298821 0.1 1011315
6 августа, пт
пт623:00+24ююз179546 0.0 1012209
02:00+23ююз129935 1.4 101051
05:00+23юз149973 1.6 1011119
08:00+25юз149479 2.4 1012221
11:00+29ю137798 2.9 10121013
14:00+30ю1374100 4.6 1009552
17:00+30ююв136841 1.3 1008468
20:00+25ююз169486 1.9 1011186
7 августа, сб
сб723:00+24юз119888 0.0 101218
02:00+23зюз1299100 0.1 101059
05:00+23юз1399100 0.0 1010105
08:00+25зюз149590 0.6 1012233
11:00+29ю127472 1.3 1012875
14:00+33ююв115393 1.8 10081674
17:00+28всв138947 2.4 1009115
20:00+24юв119761 2.7 101114
8 августа, вс
вс823:00+24ю119712 0.0 101211
02:00+23юв009894 0.0 101012
05:00+23ю009961 0.0 101013
08:00+25з019294 0.1 1012127
11:00+27в128783 2.4 1012359
14:00+29юв1277100 5.3 1009765
17:00+28ю138362 1.8 1009384
20:00+24юв1195100 1.8 101118